Home > Weather > Limón > Past weeks

Flag for Costa Rica Weather for the Past 2 Weeks in Limón, Costa Rica

Now
68 °F

Passing clouds.


Feels Like: 68 °F
Forecast: 77 / 82 °F
Wind: 15 mph from Southeast

Location: Juan Santamaria

Current Time: Feb 13, 2016 at 4:20:34 AM

Latest Report: Feb 13, 2016 at 4:00 AM


Visibility: N/A

Pressure: 29.98 "Hg

Humidity: 69%

Dew point: 57 °F

Location of LimónLocation

Historic Weather in Limón — Graph

°F

Limón Temperature Yesterday

Maximum temperature yesterday: 84 °F (at 12:00 PM)
Minimum temperature yesterday: 68 °F (at 10:00 PM)
Average temperature yesterday: 74 °F

High & Low Weather Summary for the Past Weeks

 TemperatureHumidityPressure
High90 °F (Feb 3, 1:00 PM)88% (Jan 30, 2:00 AM)30.09 "Hg (Jan 30, 2:00 AM)
Low59 °F (Feb 1, 5:00 AM)29% (Feb 3, 12:00 PM)29.92 "Hg (Feb 1, 4:00 PM)
Average73 °F57%30.01 "Hg
* Reported Jan 29 3:00 AM — Feb 13 3:00 AM, Limón, Weather by CustomWeather, © 2016

Note: Actual official high and low records may vary slightly from our data, if they occured in-between our weather recording intervals... More about our weather records

Advertising

Limón Weather History for the Previous 24 Hours

 ConditionsComfort  
Time TempWeatherWind HumidityBarometerVisibility
3:00 AM
Sat, Feb 13
68 °FPassing clouds.15 mph69%29.97 "HgN/A
2:00 AM68 °FClear.20 mph69%29.96 "Hg10 mi
1:00 AM70 °FClear.18 mph64%29.98 "Hg10 mi
12:00 AM70 °FClear.16 mph64%30.01 "Hg10 mi
11:00 PM
Fri, Feb 12
68 °FClear.17 mph69%30.01 "Hg10 mi
10:00 PM68 °FClear.14 mph69%30.02 "Hg10 mi
9:00 PM72 °FPassing clouds.17 mph57%30.02 "HgN/A
8:00 PM70 °FPassing clouds.16 mph69%30.01 "HgN/A
7:00 PM72 °FPassing clouds.17 mph65%29.98 "HgN/A
6:00 PM72 °FPassing clouds.17 mph69%29.96 "HgN/A
5:00 PM77 °FPassing clouds.16 mph54%29.94 "HgN/A
4:00 PM77 °FPassing clouds.14 mph57%29.94 "HgN/A
3:00 PM79 °FPassing clouds.17 mph51%29.94 "HgN/A
2:00 PM81 °FPassing clouds.16 mph48%29.95 "HgN/A
1:00 PM82 °FPassing clouds.20 mph45%29.98 "HgN/A
12:00 PM84 °FPassing clouds.20 mph43%30.00 "HgN/A
11:00 AM82 °FPassing clouds.18 mph45%30.03 "HgN/A
10:00 AM82 °FPassing clouds.20 mph45%30.05 "HgN/A
9:00 AM81 °FPassing clouds.20 mph51%30.05 "HgN/A
8:00 AM75 °FPassing clouds.17 mph61%30.04 "HgN/A
7:00 AM72 °FPassing clouds.13 mph69%30.03 "HgN/A
6:00 AM70 °FPassing clouds.14 mph73%30.01 "HgN/A
5:00 AM70 °FPassing clouds.14 mph73%30.01 "HgN/A
4:00 AM70 °FPassing clouds.14 mph73%29.99 "HgN/A
Weather by CustomWeather, © 2016

See weather overviewHow to use our weather pages